Weather reports worldwide

Advertisment
Zwiesel, Germany (10796): temperature & dewpoint: 10.08.2018 13:00:00 - 16.08.2018 13:00:00 (CEST)Zwiesel, Germany (10796): temperature 5cm & temperature -5cm: 10.08.2018 13:00:00 - 16.08.2018 13:00:00 (CEST)Zwiesel, Germany (10796): temperature -20cm & temperature -100cm: 10.08.2018 13:00:00 - 16.08.2018 13:00:00 (CEST)Zwiesel, Germany (10796): wind speed & gusts: 10.08.2018 13:00:00 - 16.08.2018 13:00:00 (CEST)Zwiesel, Germany (10796): wind direction: 10.08.2018 13:00:00 - 16.08.2018 13:00:00 (CEST)Zwiesel, Germany (10796): reduced air pressure: 10.08.2018 13:00:00 - 16.08.2018 13:00:00 (CEST)Zwiesel, Germany (10796): visibility: 10.08.2018 13:00:00 - 16.08.2018 13:00:00 (CEST)Zwiesel, Germany (10796): sunshine duration: 10.08.2018 13:00:00 - 16.08.2018 13:00:00 (CEST)Zwiesel, Germany (10796): precipitation: 10.08.2018 13:00:00 - 16.08.2018 13:00:00 (CEST)
Date & Time tt [°C] td [°C] tt 5cm [°C] tt -5cm [°C] tt -20cm [°C] tt -100cm [°C] ff [km/h] ff [kn] fx [km/h] fx [kn] dd ppp [hPa] vv [km] sd [min] rr [mm]
16.08.2018 13:00:00 23,7 11,3 27,9 24,5 18,5 17,6 7 4 16 8 W 1016,5 70 45 0,0
16.08.2018 12:00:00 23,4 10,8 28,1 22,9 18,1 17,6 8 5 14 8 SW 1017,2 43 59 0,0
16.08.2018 11:00:00 22,9 11,8 27,1 20,8 18,0 17,6 5 3 11 6 SSW 1017,6 30 60 0,0
16.08.2018 10:00:00 21,0 12,5 24,4 18,6 18,0 17,6 3 2 6 3 WSW 1018,1 48 60 0,0
16.08.2018 09:00:00 17,2 11,8 19,6 16,8 18,2 17,6 2 1 3 2 W 1019,3 27 60 0,0
16.08.2018 08:00:00 13,6 10,4 13,4 15,7 18,4 17,7 0 0 4 2 N 1020,6 16 60 0,0
16.08.2018 07:00:00 10,4 9,8 9,8 15,7 18,7 17,7 0 0 5 3 N 1021,4 9 4 0,0
16.08.2018 06:00:00 10,5 9,8 8,9 16,2 19,0 17,7 4 2 6 4 SSE 1021,2 9 0 0,0
16.08.2018 05:00:00 11,1 10,1 10,4 16,6 19,4 17,7 4 2 7 4 SE 1021,2 14 0 0,0
16.08.2018 04:00:00 10,7 9,7 9,1 17,1 19,7 17,7 4 2 6 4 E 1021,6 16 0 0,0
16.08.2018 03:00:00 11,5 10,4 9,7 17,7 20,0 17,7 3 2 9 5 SE 1021,5 17 0 0,0
16.08.2018 02:00:00 11,8 10,5 10,2 18,4 20,3 17,7 0 0 9 5 N 1021,8 21 0 0,0
16.08.2018 01:00:00 12,5 11,0 10,6 19,2 20,7 17,7 3 1 7 4 SSW 1021,6 15 0 0,0
16.08.2018 00:00:00 13,5 11,5 11,2 20,1 20,9 17,7 2 1 11 6 SSW 1021,4 19 0 0,0
15.08.2018 23:00:00 15,1 11,5 13,0 21,0 21,2 17,7 4 2 12 6 ENE 1020,7 27 0 0,0
15.08.2018 22:00:00 15,9 12,4 14,0 22,1 21,3 17,7 3 1 6 3 ESE 1020,4 29 0 0,0
15.08.2018 21:00:00 16,4 11,5 14,1 23,3 21,4 17,7 3 2 5 3 NE 1019,6 30 0 0,0
15.08.2018 20:00:00 20,0 11,2 18,0 24,7 21,3 17,7 6 3 17 9 WNW 1018,3 36 28 0,0
15.08.2018 19:00:00 21,2 11,7 21,1 25,9 21,0 17,7 8 5 19 10 W 1018,0 36 22 0,0
15.08.2018 18:00:00 22,7 10,8 25,0 26,8 20,6 17,7 12 7 24 13 W 1017,7 40 47 0,0
15.08.2018 17:00:00 24,1 10,9 28,0 26,7 20,1 17,7 16 8 26 14 WSW 1017,4 36 43 0,0
15.08.2018 16:00:00 23,0 11,5 26,4 26,1 19,7 17,7 14 8 23 12 W 1017,9 38 54 0,0
15.08.2018 15:00:00 22,0 11,9 25,1 25,1 19,2 17,7 13 7 23 13 WSW 1018,6 46 23 0,0
15.08.2018 14:00:00 22,6 11,9 28,2 24,1 18,9 17,7 12 6 26 14 SW 1018,3 27 42 0,0
15.08.2018 13:00:00 20,6 10,9 22,4 23,2 18,5 17,7 15 8 26 14 SW 1018,9 37 24 0,0
15.08.2018 12:00:00 20,8 11,4 24,7 22,1 18,2 17,7 15 8 23 12 SW 1019,1 32 42 0,0
15.08.2018 11:00:00 20,4 11,0 25,2 20,4 18,1 17,7 8 4 17 9 SSW 1019,2 29 58 0,0
15.08.2018 10:00:00 19,0 12,7 22,0 18,5 18,1 17,7 6 3 9 5 SW 1019,4 25 26 0,0
15.08.2018 09:00:00 16,6 11,9 18,7 17,4 18,2 17,7 4 2 6 3 SE 1019,7 27 32 0,0
15.08.2018 08:00:00 15,5 11,6 17,2 16,3 18,4 17,7 3 1 4 2 SSW 1020,0 24 60 0,0
15.08.2018 07:00:00 11,6 10,8 11,2 16,2 18,7 17,7 3 2 5 3 WNW 1020,4 13 6 0,0
15.08.2018 06:00:00 12,2 11,3 9,9 16,8 18,9 17,7 3 2 7 4 ENE 1020,0 18 0 0,0
15.08.2018 05:00:00 13,2 11,7 12,7 17,3 19,1 17,7 2 1 5 3 NW 1019,7 21 0 0,0
15.08.2018 04:00:00 13,0 11,2 10,9 17,7 19,4 17,7 2 1 8 4 NW 1019,5 25 0 0,0
15.08.2018 03:00:00 14,5 12,1 14,0 18,2 19,6 17,7 3 2 6 3 N 1018,7 31 0 0,0
15.08.2018 02:00:00 14,6 11,7 14,3 18,4 19,8 17,7 3 1 10 6 SW 1018,4 30 0 0,0
15.08.2018 01:00:00 15,3 11,2 13,5 19,0 20,0 17,7 5 3 9 5 ESE 1018,0 34 0 0,0
15.08.2018 00:00:00 15,7 11,1 14,6 19,5 20,3 17,7 4 2 23 12 ENE 1017,6 34 0 0,0
14.08.2018 23:00:00 17,3 10,9 15,8 20,1 20,4 17,7 5 3 22 12 NW 1016,9 40 0 0,0
14.08.2018 22:00:00 17,0 11,4 16,5 20,7 20,6 17,7 7 4 17 9 W 1016,9 43 0 0,0
14.08.2018 21:00:00 18,0 10,6 16,5 21,4 20,7 17,7 6 3 16 9 NW 1016,0 45 0 0,0
14.08.2018 20:00:00 19,5 10,3 18,9 22,2 20,7 17,7 8 4 21 11 NW 1014,8 41 38 0,0
14.08.2018 19:00:00 20,5 10,6 20,5 23,1 20,6 17,7 11 6 23 12 W 1013,8 41 52 0,0
14.08.2018 18:00:00 21,4 10,8 23,4 23,4 20,4 17,7 14 8 26 14 W 1013,4 31 29 0,0
14.08.2018 17:00:00 20,8 10,5 22,0 23,4 20,3 17,8 17 9 28 15 W 1013,5 47 46 0,0
14.08.2018 16:00:00 21,2 12,1 23,9 23,0 20,1 17,8 10 6 28 15 W 1013,3 44 9 0,0
14.08.2018 15:00:00 20,3 11,0 21,9 23,2 20,0 17,8 16 9 29 16 WSW 1013,6 57 18 0,0
14.08.2018 14:00:00 19,9 11,6 21,5 22,8 19,8 17,8 13 7 29 15 NW 1013,6 58 26 0,0
14.08.2018 13:00:00 19,7 10,7 20,8 22,4 19,7 17,8 19 11 40 22 WSW 1013,6 56 38 0,0
14.08.2018 12:00:00 18,0 12,0 18,8 21,8 19,6 17,8 13 7 23 13 WNW 1014,0 52 14 0,0
14.08.2018 11:00:00 18,6 12,5 20,2 21,6 19,5 17,8 12 7 23 13 WNW 1013,8 52 43 0,0
14.08.2018 10:00:00 19,0 14,0 21,7 20,2 19,6 17,8 15 8 24 13 W 1013,3 35 40 0,0
14.08.2018 09:00:00 17,3 14,1 18,5 19,4 19,7 17,8 5 3 8 4 SW 1013,2 20 8 0,0
14.08.2018 08:00:00 16,0 15,0 16,5 19,2 19,9 17,8 0 0 6 4 N 1013,2 8 1 0,0
14.08.2018 07:00:00 15,8 15,0 16,2 19,3 20,0 17,8 3 2 5 3 WSW 1012,8 7 0 0,0
14.08.2018 06:00:00 15,6 14,9 15,9 19,4 20,3 17,8 0 0 4 2 N 1012,3 9 0 0,0
14.08.2018 05:00:00 15,6 14,8 16,0 19,6 20,5 17,8 2 1 4 2 ENE 1012,1 18 0 0,0
14.08.2018 04:00:00 15,5 14,8 15,8 19,9 20,7 17,8 0 0 4 2 N 1012,1 15 0 0,0
14.08.2018 03:00:00 15,5 14,6 15,9 20,1 21,0 17,8 2 1 5 3 SE 1012,1 15 0 0,0
14.08.2018 02:00:00 15,5 14,4 15,7 20,4 21,3 17,8 3 2 9 5 SSE 1012,5 22 0 0,0
14.08.2018 01:00:00 15,6 14,7 15,8 20,8 21,6 17,8 4 2 8 4 WSW 1012,6 13 0 0,0
14.08.2018 00:00:00 15,6 14,8 15,8 21,5 21,9 17,8 6 3 14 8 SE 1012,1 17 0 0,1
13.08.2018 23:00:00 15,8 15,0 16,0 22,4 22,1 17,8 11 6 15 8 ESE 1011,8 14 0 1,6
13.08.2018 22:00:00 16,2 14,7 16,2 23,6 22,3 17,8 8 4 27 14 SE 1012,3 4,0 0 2,2
13.08.2018 21:00:00 18,8 13,6 16,5 25,0 22,4 17,9 13 7 41 22 W 1010,8 11 0 0,2
13.08.2018 20:00:00 22,4 10,7 22,0 26,4 22,3 17,9 12 7 32 17 W 1008,4 39 0 0,0
13.08.2018 19:00:00 24,8 12,4 24,5 27,8 22,0 17,9 13 7 24 13 NW 1006,6 43 0 0,0
13.08.2018 18:00:00 27,2 13,1 27,7 28,7 21,6 17,9 8 4 17 9 W 1005,7 42 53 0,0
13.08.2018 17:00:00 28,3 11,6 32,5 28,8 21,0 17,9 9 5 23 13 S 1005,7 48 60 0,0
13.08.2018 16:00:00 28,0 12,1 31,5 28,5 20,4 17,9 13 7 23 12 SW 1006,5 44 19 0,0
13.08.2018 15:00:00 28,3 10,3 31,2 28,7 19,7 17,9 15 8 32 17 SSW 1006,7 44 55 0,0
13.08.2018 14:00:00 28,9 10,4 32,9 27,4 19,0 17,9 11 6 29 15 SW 1007,2 34 59 0,0
13.08.2018 13:00:00 28,6 11,2 33,4 25,6 18,5 17,9 11 6 23 13 S 1007,8 37 60 0,0
13.08.2018 12:00:00 28,1 12,7 31,8 23,5 18,1 17,9 6 4 23 13 S 1008,2 37 60 0,0
13.08.2018 11:00:00 25,6 12,3 28,5 21,1 17,8 17,9 4 2 10 6 NNW 1009,2 46 60 0,0
13.08.2018 10:00:00 23,0 13,5 25,6 18,8 17,8 17,9 4 2 5 3 NW 1010,1 36 60 0,0
13.08.2018 09:00:00 18,5 12,2 21,0 16,7 18,0 17,9 3 2 4 2 WNW 1011,6 38 60 0,0
13.08.2018 08:00:00 14,4 10,0 16,8 15,4 18,3 17,9 3 1 4 2 SSE 1012,7 41 60 0,0
13.08.2018 07:00:00 9,9 8,5 10,0 15,2 18,5 17,9 3 1 4 2 SSW 1013,9 24 7 0,0
13.08.2018 06:00:00 9,4 8,3 7,9 15,7 18,9 17,9 2 1 5 3 SSE 1014,2 25 0 0,0
13.08.2018 05:00:00 9,7 8,3 8,3 16,2 19,3 18,0 3 2 6 3 ESE 1014,4 32 0 0,0
13.08.2018 04:00:00 10,1 8,5 8,7 16,7 19,6 18,0 2 1 6 3 NW 1014,6 30 0 0,0
13.08.2018 03:00:00 10,4 8,5 8,8 17,3 20,0 18,0 4 2 5 3 NNE 1014,7 31 0 0,0
13.08.2018 02:00:00 11,1 9,0 9,2 18,0 20,3 18,0 2 1 8 4 SSE 1014,8 39 0 0,0
13.08.2018 01:00:00 12,2 9,6 10,0 18,9 20,7 18,0 4 2 9 5 SE 1015,0 39 0 0,0
13.08.2018 00:00:00 12,9 9,6 10,1 19,9 21,0 18,0 4 2 9 5 SE 1015,0 38 0 0,0
12.08.2018 23:00:00 14,3 10,0 10,9 21,0 21,2 18,0 3 1 6 4 NE 1014,8 40 0 0,0
12.08.2018 22:00:00 15,8 10,2 12,0 22,3 21,4 18,0 2 1 5 3 W 1014,7 35 0 0,0
12.08.2018 21:00:00 17,2 11,0 14,0 23,8 21,4 18,0 3 2 5 3 NW 1014,0 48 9 0,0
12.08.2018 20:00:00 21,4 11,0 17,8 25,2 21,2 18,0 4 2 14 7 N 1012,7 60 60 0,0
12.08.2018 19:00:00 24,9 8,0 24,4 26,4 20,9 18,0 8 4 18 10 WSW 1012,3 52 60 0,0
12.08.2018 18:00:00 26,2 8,7 29,8 27,0 20,4 18,0 5 3 14 8 SW 1012,6 51 60 0,0
12.08.2018 17:00:00 26,1 8,6 30,1 27,1 19,8 18,0 8 5 18 10 SE 1013,1 44 60 0,0
12.08.2018 16:00:00 25,7 7,8 29,0 26,9 19,1 18,0 11 6 18 10 SW 1013,9 55 60 0,0
12.08.2018 15:00:00 25,7 8,7 29,0 25,9 18,5 18,0 9 5 18 10 W 1014,4 45 60 0,0
12.08.2018 14:00:00 24,7 7,6 29,9 24,3 17,9 18,0 8 4 18 10 ESE 1015,4 43 60 0,0
12.08.2018 13:00:00 24,2 7,8 28,4 22,6 17,4 18,0 8 5 14 7 NE 1016,2 30 60 0,0
12.08.2018 12:00:00 22,8 4,5 27,2 20,8 17,1 18,0 8 5 16 9 SSW 1017,4 48 60 0,0
12.08.2018 11:00:00 21,9 6,1 25,1 19,0 16,9 18,0 7 4 15 8 SW 1018,0 44 60 0,0
12.08.2018 10:00:00 19,6 9,6 21,1 16,7 16,9 18,0 3 2 5 3 W 1018,9 47 60 0,0
12.08.2018 09:00:00 15,2 8,7 17,7 14,7 17,1 18,0 3 2 5 3 W 1020,4 45 60 0,0
12.08.2018 08:00:00 10,9 6,6 11,1 13,3 17,4 18,0 2 1 4 2 W 1022,0 35 60 0,0
12.08.2018 07:00:00 6,8 6,0 6,8 13,1 17,7 18,0 2 1 5 3 SE 1023,4 25 7 0,0
12.08.2018 06:00:00 6,8 6,2 5,0 13,6 18,1 18,0 2 1 6 3 WSW 1023,5 18 0 0,0
12.08.2018 05:00:00 7,3 6,4 5,4 14,2 18,4 18,0 4 2 6 4 SE 1023,7 29 0 0,0
12.08.2018 04:00:00 7,6 6,6 6,0 14,8 18,8 18,0 4 2 5 3 ESE 1024,2 29 0 0,0
12.08.2018 03:00:00 8,3 6,9 6,5 15,4 19,2 18,1 3 1 8 4 NNW 1024,4 36 0 0,0
12.08.2018 02:00:00 8,9 7,1 7,0 16,1 19,5 18,1 4 2 8 5 E 1024,3 33 0 0,0
12.08.2018 01:00:00 10,0 7,7 8,0 16,9 19,9 18,1 4 2 6 4 ESE 1024,5 41 0 0,0
12.08.2018 00:00:00 11,2 8,4 9,0 17,6 20,2 18,1 5 3 8 4 NNE 1024,1 44 0 0,0
11.08.2018 23:00:00 12,0 8,1 9,4 18,5 20,5 18,1 4 2 8 5 ESE 1023,7 41 0 0,0
11.08.2018 22:00:00 13,0 8,5 10,2 19,6 20,7 18,1 0 0 6 3 N 1023,4 52 0 0,0
11.08.2018 21:00:00 14,5 8,7 11,6 20,7 20,9 18,1 0 0 9 5 N 1022,4 45 14 0,0
11.08.2018 20:00:00 18,8 7,5 15,3 21,8 20,9 18,1 6 3 24 13 WNW 1021,0 56 57 0,0
11.08.2018 19:00:00 20,9 6,0 21,3 22,9 20,8 18,0 15 8 30 16 W 1020,4 49 60 0,0
11.08.2018 18:00:00 21,5 8,4 23,7 23,6 20,6 18,0 14 7 25 14 W 1020,2 48 46 0,0
11.08.2018 17:00:00 21,6 10,1 23,5 24,1 20,4 18,0 14 7 35 19 W 1020,2 40 39 0,0
11.08.2018 16:00:00 22,2 10,9 24,6 24,4 20,1 18,0 13 7 34 18 W 1020,5 32 49 0,0
11.08.2018 15:00:00 21,0 10,8 23,4 24,2 19,7 18,0 16 8 32 17 W 1021,3 42 48 0,0
11.08.2018 14:00:00 21,4 11,9 25,2 23,5 19,3 18,0 14 7 26 14 W 1021,5 55 24 0,0
11.08.2018 13:00:00 20,1 10,4 23,8 23,4 18,9 18,0 11 6 19 10 SW 1022,1 57 51 0,0
11.08.2018 12:00:00 19,9 10,9 23,7 21,9 18,6 18,0 7 4 19 11 SSW 1022,4 42 52 0,0
11.08.2018 11:00:00 18,6 10,8 21,5 20,5 18,5 18,0 5 3 10 6 SW 1022,8 39 60 0,0
11.08.2018 10:00:00 16,9 11,1 19,3 18,7 18,5 18,0 3 2 8 5 WSW 1023,2 55 60 0,0
11.08.2018 09:00:00 13,9 10,4 16,8 17,2 18,6 18,0 3 1 8 4 SE 1024,2 34 51 0,0
11.08.2018 08:00:00 11,4 9,8 12,9 16,4 18,8 18,0 3 2 8 4 NNW 1024,8 17 0 0,0
11.08.2018 07:00:00 10,7 10,1 11,3 16,2 19,0 18,0 4 2 8 4 NE 1024,8 11 0 0,0
11.08.2018 06:00:00 10,2 9,6 10,9 16,4 19,2 18,0 5 3 8 5 E 1024,8 3,7 0 0,0
11.08.2018 05:00:00 11,1 10,5 11,4 16,7 19,5 18,0 3 1 8 5 NNE 1024,6 8 0 0,0
11.08.2018 04:00:00 11,4 11,1 11,7 17,2 19,7 18,0 5 3 10 6 E 1024,8 3,5 0 0,0
11.08.2018 03:00:00 11,7 11,1 11,5 17,6 19,9 18,0 0 0 5 3 N 1025,1 5 0 0,0
11.08.2018 02:00:00 12,3 12,0 12,7 18,0 20,2 18,0 6 3 9 5 E 1025,3 0,4 0 0,0
11.08.2018 01:00:00 13,1 12,4 13,2 18,4 20,4 18,0 3 2 5 3 WNW 1025,5 4,7 0 0,0
11.08.2018 00:00:00 12,9 12,1 13,1 18,8 20,6 18,0 2 1 5 3 E 1025,5 6 0 0,0
10.08.2018 23:00:00 13,6 12,5 13,9 19,2 20,8 17,9 2 1 7 4 NW 1025,5 9 0 0,0
10.08.2018 22:00:00 13,9 12,8 14,3 19,7 21,0 17,9 3 1 8 4 SSE 1025,6 11 0 0,0
10.08.2018 21:00:00 14,2 12,9 14,3 20,3 21,1 17,9 4 2 8 5 SSW 1025,1 13 0 0,0
10.08.2018 20:00:00 15,2 12,7 15,6 20,9 21,2 17,9 5 3 9 5 S 1024,9 19 0 0,0
10.08.2018 19:00:00 15,8 12,7 16,5 21,3 21,2 17,9 6 4 11 6 WSW 1024,7 34 1 0,0
10.08.2018 18:00:00 16,0 12,7 17,0 21,1 21,3 17,9 5 3 10 5 SW 1024,4 27 13 0,1
10.08.2018 17:00:00 14,8 13,1 15,2 21,2 21,4 17,9 5 3 12 6 SW 1025,0 5 0 0,5
10.08.2018 16:00:00 15,5 13,2 16,1 21,0 21,5 17,9 5 3 9 5 SW 1025,0 20 0 0,6
10.08.2018 15:00:00 14,9 12,6 15,2 21,0 21,7 17,9 4 2 15 8 SW 1025,1 42 0 0,3
10.08.2018 14:00:00 15,0 13,1 15,5 20,8 21,8 17,9 6 3 14 7 WSW 1025,0 4,0 0 3,1
10.08.2018 13:00:00 15,3 14,3 15,9 21,0 22,0 17,9 6 3 16 9 SW 1024,5 5 0 4,9

tt = temperature
td = dewpoint
tt 5cm = temperature 5cm
tt -5cm = temperature -5cm
tt -20cm = temperature -20cm
tt -100cm = temperature -100cm
ff = wind speed
fx = gusts
dd = wind direction
ppp = reduced air pressure
vv = visibility
sd = sunshine duration
rr = precipitation

Next stations